Location: Powder Track
(41.8531°N, 72.3584°W)
Time: 00:15:57
(UTC+00:00)

Vanguard 1 Rocket - Pass Details

Date: 15 August 2021
Orbit: 650 x 4226 km, 34.3° (Epoch: 19 September)

Event Time Altitude Azimuth Distance (km) Brightness Sun altitude
Rises 11:21:02 0° 239° (WSW) 7,914 11.6 14.2°
Reaches altitude 10° 11:26:10 10° 236° (SW) 7,141 11.5 15.2°
Maximum altitude 11:51:37 63° 163° (SSE) 4,325 11.2 19.9°
Drops below altitude 10° 12:11:31 10° 89° (E) 5,811 13.5 23.6°
Sets 12:15:08 0° 86° (E) 6,450 13.1 24.3°
